Weather observations for the past three days for
Ada, Ada Municipal Airport
Metric (Imperial)
Date Time (cdt) Wind (kph) Vis. (km) Weather Sky Cond. Temperature (ºC) Relative Humidity Wind Chill (°C) Heat Index (°C) Pressure Precipitation (cm)
Air Dwpt 6 hour altimeter (cm) sea level (mb) 1 hr 3 hr 6 hr
Max. Min.
04 17:15 S 22 G 37 16.09 Fair CLR 27 19 62% 28 75.36 0.0
04 16:55 S 31 G 37 16.09 Fair CLR 27 18 58% 28 75.39 0.0
04 16:35 S 28 G 41 16.09 Fair CLR 27 18 58% 28 75.41 0.0
04 16:15 S 28 G 48 14.48 Fair CLR 27 18 58% 28 75.41 0.0
04 15:55 S 24 G 44 16.09 Fair CLR 27 18 58% 28 75.44 0.0
04 15:35 S 24 G 41 16.09 Fair CLR 27 18 58% 28 75.46 0.0
04 15:15 S 26 G 41 16.09 Fair CLR 27 18 58% 28 75.51 0.0
04 14:55 S 28 G 43 16.09 Fair CLR 27 18 58% 28 75.54 0.0
04 14:35 S 31 G 50 16.09 Fair CLR 27 18 58% 28 75.54 0.0
04 14:15 S 24 G 43 16.09 Fair CLR 27 18 58% 28 75.57 0.0
04 13:55 S 26 G 46 16.09 Fair CLR 26 17 58% 27 75.59 0.0
04 13:35 S 28 G 41 16.09 Fair CLR 26 17 58% 27 75.59 0.0
04 13:16 S 24 G 43 16.09 Fair CLR 26 17 58% 27 75.62 0.0
04 12:55 S 24 G 41 16.09 Fair CLR 26 17 25.6 17.4 58% 27 75.64 0.0
04 12:35 S 26 G 41 16.09 Fair CLR 25 17 61% 26 75.69 0.0
04 12:15 S 30 G 50 16.09 Fair CLR 24 16 61% 25 75.69 0.0
04 11:55 S 28 G 43 16.09 Fair CLR 25 16 57% 26 75.72 0.0
04 11:35 S 30 G 48 16.09 Fair CLR 24 16 61% 25 75.74 0.0
04 11:15 S 24 G 39 16.09 Fair CLR 24 16 61% 25 75.74 0.0
04 10:55 S 30 G 41 16.09 Fair CLR 24 16 61% 25 75.74 0.0
04 10:35 S 31 G 50 16.09 Fair CLR 24 16 61% 25 75.74 0.0
04 10:15 S 22 G 41 16.09 Fair CLR 23 15 61% 75.74 0.0
04 09:55 S 20 G 35 16.09 Fair CLR 22 15 65% 75.77 0.0
04 09:35 S 26 G 39 16.09 Fair CLR 22 15 65% 75.77 0.0
04 09:15 S 26 G 41 16.09 Fair CLR 21 14 64% 75.77 0.0
04 08:55 S 20 G 41 16.09 Fair CLR 20 14 69% 75.79 0.0
04 08:35 S 26 G 41 16.09 Fair CLR 20 14 69% 75.79 0.0
04 08:15 S 24 G 37 16.09 Fair CLR 19 13 68% 75.79 0.0
04 07:56 S 28 G 41 16.09 Fair CLR 19 13 68% 75.79 0.0
04 07:35 S 26 G 33 16.09 Fair CLR 18 12 68% 75.79 0.0
04 07:15 SW 28 G 48 16.09 Fair CLR 18 12 68% 75.79 0.0
04 06:55 SW 26 G 39 16.09 Fair CLR 18 11 19.8 17.3 64% 75.79 0.0
04 06:35 SW 24 G 43 16.09 Fair CLR 18 11 64% 75.77 0.0
04 06:15 S 22 G 35 16.09 Fair CLR 18 11 64% 75.79 0.0
04 05:55 S 26 G 35 16.09 Fair CLR 17 11 68% 75.79 0.0
04 05:35 S 26 G 41 16.09 Fair CLR 18 11 64% 75.82 0.0
04 05:15 S 19 G 35 16.09 Fair CLR 18 11 64% 75.82 0.0
04 04:55 S 22 G 35 16.09 Fair CLR 18 11 64% 75.82 0.0
04 04:35 S 24 16.09 Fair CLR 18 10 60% 75.84 0.0
04 04:15 S 19 G 37 16.09 Fair CLR 18 10 60% 75.84 0.0
04 03:55 SW 20 G 35 16.09 Fair CLR 18 10 60% 75.84 0.0
04 03:35 S 24 G 35 16.09 Fair CLR 19 10 56% 75.84 0.0
04 03:16 S 24 G 35 16.09 Fair CLR 19 10 56% 75.87 0.0
04 02:55 S 24 G 39 16.09 Fair CLR 19 10 56% 75.87 0.0
04 02:35 S 30 G 37 16.09 Fair CLR 19 10 56% 75.9 0.0
04 02:15 S 24 G 39 16.09 Fair CLR 19 10 56% 75.92 0.0
04 01:55 S 22 G 39 16.09 Fair CLR 19 10 56% 75.95 0.0
04 01:35 S 26 G 46 16.09 Fair CLR 20 10 53% 75.97 0.0
04 01:07 S 30 G 41 16.09 Fair CLR 20 10 53% 76 0.0
04 00:55 S 24 G 37 16.09 Fair CLR 20 10 26.4 18.7 53% 76 0.0
04 00:35 S 20 G 39 16.09 Fair CLR 20 10 53% 76.02 0.0
04 00:15 S 22 G 37 16.09 Fair CLR 20 10 53% 76.02 0.0
03 23:55 S 24 G 44 16.09 Fair CLR 21 9 46% 76.02 0.0
03 23:35 S 20 G 37 16.09 Fair CLR 20 9 49% 76.02 0.0
03 23:15 S 20 G 31 16.09 Fair CLR 21 9 46% 76.05 0.0
03 22:55 S 20 G 28 16.09 Fair CLR 21 9 46% 76.05 0.0
03 22:36 S 15 16.09 Fair CLR 20 10 53% 76.05 0.0
03 22:17 S 17 16.09 Fair CLR 19 10 56% 76.05 0.0
03 21:55 S 11 16.09 Fair CLR 20 11 56% 76.05 0.0
03 21:36 S 11 16.09 Fair CLR 20 10 53% 76.05 0.0
03 21:15 S 9 16.09 Fair CLR 21 10 50% 76.05 0.0
03 20:55 S 13 16.09 Fair CLR 22 10 47% 76.05 0.0
03 20:35 S 15 16.09 Fair CLR 22 10 47% 76.05 0.0
03 20:15 S 13 16.09 Fair CLR 23 10 44% 76.02 0.0
03 19:55 S 17 16.09 Fair CLR 24 10 41% 25 76.02 0.0
03 19:35 S 24 G 33 16.09 Fair CLR 25 10 39% 26 76.02 0.0
03 19:15 SW 22 G 35 16.09 Fair CLR 26 10 37% 26 76.02 0.0
03 18:55 SW 20 G 33 16.09 Fair CLR 26 10 28.4 25.8 37% 26 76.05 0.0
03 18:35 S 19 G 41 16.09 Fair CLR 27 10 34% 27 76.05 0.0
03 18:15 SW 26 G 33 16.09 Fair CLR 27 11 37% 27 76.05 0.0
03 17:35 SW 22 G 41 16.09 Fair CLR 27 11 37% 27 76.05 0.0
03 17:15 SW 24 G 43 16.09 Fair CLR 28 11 35% 27 76.07 0.0
03 16:55 SW 22 G 39 16.09 Fair CLR 28 11 35% 27 76.07 0.0
03 16:35 SW 20 G 35 16.09 Fair CLR 28 11 35% 27 76.1 0.0
03 16:15 SW 20 G 33 16.09 Fair CLR 28 11 35% 27 76.12 0.0
03 15:55 SW 24 G 31 16.09 A Few Clouds FEW085 28 11 35% 27 76.15 0.0
03 15:36 SW 15 G 35 16.09 Fair CLR 28 11 35% 27 76.17 0.0
03 15:15 SW 20 G 33 16.09 Fair CLR 28 11 35% 27 76.2 0.0
03 14:55 SW 20 G 33 16.09 A Few Clouds FEW080 28 11 35% 27 76.23 0.0
03 14:35 SW 22 G 37 16.09 Partly Cloudy SCT080 27 11 37% 27 76.23 0.0
03 14:15 SW 26 G 35 16.09 Fair CLR 28 14 42% 28 76.25 0.0
03 13:55 SW 26 G 35 16.09 Fair CLR 28 13 40% 28 76.28 0.0
03 13:35 SW 22 G 35 16.09 Fair CLR 27 13 42% 27 76.3 0.0
03 13:15 SW 22 G 31 16.09 Fair CLR 27 14 45% 27 76.33 0.0
03 12:55 SW 13 G 33 16.09 Fair CLR 26 14 26.1 11.4 48% 26 76.35 0.0
03 12:35 W 22 G 31 16.09 Fair CLR 26 15 51% 27 76.38 0.0
03 12:15 SW 26 G 33 16.09 Fair CLR 25 13 47% 26 76.38 0.0
03 11:55 SW 20 G 28 16.09 Fair CLR 25 14 51% 26 76.4 0.0
03 11:35 W 22 16.09 Fair CLR 24 13 50% 25 76.4 0.0
03 11:15 SW 22 G 33 16.09 Fair CLR 24 13 50% 25 76.43 0.0
03 10:55 SW 24 G 37 16.09 Fair CLR 23 13 53% 76.43 0.0
03 10:35 W 17 G 37 16.09 Fair CLR 23 13 53% 76.43 0.0
03 10:15 SW 17 16.09 Fair CLR 21 14 64% 76.43 0.0
03 09:56 SW 17 G 26 16.09 Fair CLR 21 14 64% 76.43 0.0
03 09:35 SW 17 16.09 Fair CLR 20 14 69% 76.43 0.0
03 09:15 SW 13 16.09 Fair CLR 19 14 73% 76.45 0.0
03 08:55 S 7 16.09 Fair CLR 16 14 88% 76.43 0.0
03 08:35 S 11 16.09 Fair CLR 15 14 94% 76.43 0.0
03 08:15 S 9 16.09 Fair CLR 14 13 94% 76.43 0.0
03 07:55 S 11 16.09 Fair CLR 13 13 100% 76.43 0.0
03 07:35 S 11 16.09 Fair CLR 13 13 100% 76.43 0.0
03 07:15 S 9 16.09 Fair CLR 12 12 100% 76.43 0.0
03 06:55 S 11 16.09 Fair CLR 11 11 13.6 11 100% 76.4 0.0
03 06:35 S 13 16.09 Fair CLR 12 12 100% 76.4 0.0
03 06:15 S 11 16.09 Fair CLR 12 12 100% 76.4 0.0
03 05:55 SE 11 16.09 Fair CLR 12 12 100% 76.4 0.0
03 05:35 SE 13 16.09 Fair CLR 12 12 100% 76.4 0.0
03 05:15 SE 15 16.09 Fair CLR 12 12 100% 76.43 0.0
03 04:55 SE 15 16.09 Fair CLR 12 12 100% 76.43 0.0
03 04:35 SE 13 16.09 Fair CLR 12 12 100% 76.45 0.0
03 04:15 SE 13 16.09 Fair CLR 12 12 100% 76.45 0.0
03 03:55 SE 11 16.09 Fair CLR 11 11 100% 76.45 0.0
03 03:35 SE 9 16.09 Fair CLR 12 11 94% 76.45 0.0
03 03:15 SE 15 16.09 Fair CLR 13 12 94% 76.48 0.0
03 02:55 Vrbl 7 16.09 Fair CLR 12 11 94% 76.48 0.0
03 02:35 E 11 16.09 Fair CLR 12 11 94% 76.48 0.0
03 02:15 E 9 16.09 Fair CLR 12 11 94% 76.48 0.0
03 01:55 E 9 16.09 Fair CLR 13 11 88% 76.5 0.0
03 01:35 E 9 16.09 Fair CLR 13 11 88% 76.5 0.0
03 01:15 Calm 16.09 Fair CLR 13 11 88% 76.53 0.0
03 00:55 Calm 16.09 Fair CLR 13 12 24 13.1 94% 76.53 0.0
03 00:35 E 7 16.09 Fair CLR 13 12 94% 76.5 0.0
03 00:15 E 6 16.09 Fair CLR 14 11 82% 76.5 0.0
02 23:55 E 9 16.09 Fair CLR 15 11 77% 76.5 0.0
02 23:35 SE 6 16.09 Fair CLR 14 12 88% 76.5 0.0
02 23:15 E 9 16.09 Fair CLR 14 12 88% 76.5 0.0
02 22:55 E 7 16.09 Fair CLR 15 11 77% 76.48 0.0
02 22:35 E 6 16.09 Fair CLR 16 12 77% 76.48 0.0
02 22:15 Calm 16.09 Fair CLR 16 12 77% 76.48 0.0
02 21:55 E 7 16.09 Fair CLR 16 11 72% 76.45 0.0
02 21:35 E 7 16.09 Fair CLR 17 11 68% 76.45 0.0
02 21:15 E 7 16.09 Fair CLR 18 11 64% 76.43 0.0
02 20:55 E 7 16.09 Fair CLR 18 11 64% 76.43 0.0
02 20:35 E 9 16.09 Fair CLR 19 11 60% 76.4 0.0
02 20:15 E 7 16.09 Fair CLR 20 11 56% 76.4 0.0
02 19:55 NE 7 16.09 Fair CLR 21 11 53% 76.38 0.0
02 19:35 NE 6 16.09 Fair CLR 23 11 47% 76.38 0.0
02 19:15 E 7 16.09 Fair CLR 23 11 47% 76.38 0.0
02 18:55 NE 7 16.09 Fair CLR 24 11 24.4 20.3 44% 25 76.38 0.0
02 18:35 Calm 16.09 Fair CLR 24 10 41% 25 76.38 0.0
02 18:15 NE 6 16.09 Fair CLR 24 10 41% 25 76.38 0.0
02 17:55 NE 11 16.09 A Few Clouds FEW075 24 10 41% 25 76.38 0.0
02 17:35 Vrbl 7 16.09 A Few Clouds FEW075 24 10 41% 25 76.4 0.0
02 17:15 Vrbl 6 16.09 Fair CLR 24 10 41% 25 76.4 0.0
02 16:55 Calm 16.09 Fair CLR 24 10 41% 25 76.4 0.0
02 16:35 NW 7 16.09 Partly Cloudy FEW070 FEW080 SCT100 22 11 50% 76.43 0.0
02 16:15 NW 11 16.09 Mostly Cloudy BKN070 BKN085 BKN110 22 10 47% 76.45 0.0
02 15:55 Vrbl 9 16.09 Partly Cloudy SCT070 SCT085 24 10 41% 25 76.45 0.0
02 15:35 Vrbl 11 16.09 A Few Clouds FEW100 23 10 44% 76.48 0.0
02 15:15 Vrbl 7 16.09 Mostly Cloudy FEW070 BKN110 23 10 44% 76.5 0.0
02 14:35 W 11 16.09 Partly Cloudy SCT060 23 10 44% 76.53 0.0
02 14:15 N 7 16.09 Partly Cloudy SCT060 22 10 47% 76.53 0.0
02 13:55 Calm 16.09 Partly Cloudy FEW060 SCT100 21 9 46% 76.56 0.0
02 13:35 Vrbl 7 16.09 Overcast OVC100 21 9 46% 76.56 0.0
02 13:15 Vrbl 9 16.09 Mostly Cloudy BKN110 21 10 50% 76.58 0.0
02 12:55 W 11 16.09 Overcast OVC110 21 10 21.5 8.7 50% 76.61 0.0
02 12:35 W 17 G 26 16.09 Mostly Cloudy BKN100 21 9 46% 76.63 0.0
02 12:15 W 9 16.09 A Few Clouds FEW120 21 9 46% 76.63 0.0
02 11:55 Vrbl 9 16.09 Partly Cloudy SCT120 21 9 46% 76.63 0.0
02 11:35 SW 13 16.09 Fair CLR 21 8 43% 76.63 0.0
02 11:15 SW 13 16.09 Fair CLR 20 7 43% 76.63 0.0
02 10:55 Vrbl 9 16.09 Fair CLR 19 7 46% 76.63 0.0
02 10:35 Calm 16.09 Fair CLR 19 7 46% 76.63 0.0
02 10:15 W 9 16.09 Fair CLR 18 7 49% 76.63 0.0
02 09:55 Vrbl 6 16.09 Fair CLR 17 5 45% 76.63 0.0
02 09:35 Calm 16.09 Fair CLR 17 7 52% 76.63 0.0
02 09:15 Calm 16.09 A Few Clouds FEW100 15 8 63% 76.63 0.0
02 08:55 Calm 16.09 Fair CLR 14 9 72% 76.63 0.0
02 08:35 Calm 16.09 Fair CLR 13 11 88% 76.63 0.0
02 08:15 Calm 16.09 Fair CLR 11 11 100% 76.63 0.0
02 07:55 Calm 16.09 Partly Cloudy SCT110 10 10 100% 76.63 0.0
02 07:35 Calm 16.09 Overcast SCT080 BKN100 OVC120 10 10 100% 76.61 0.0
02 07:15 N 7 16.09 Overcast OVC080 10 9 94% 9 76.63 0.0
02 06:55 N 9 16.09 Overcast OVC080 9 9 12.6 6.7 100% 8 76.61 0.0
02 06:35 NW 9 16.09 Overcast FEW042 BKN070 OVC080 9 9 100% 8 76.58 0.0
02 06:15 Calm 16.09 Mostly Cloudy BKN075 BKN085 8 8 100% 76.53 0.0
02 05:55 W 9 16.09 Partly Cloudy FEW085 SCT110 7 7 100% 5 76.5 0.0
02 05:35 W 6 16.09 Fair CLR 8 8 100% 76.48 0.0
02 05:15 W 7 16.09 A Few Clouds FEW100 7 7 100% 6 76.48 0.0
02 04:55 W 7 16.09 Fair CLR 8 8 100% 7 76.48 0.0
02 04:35 W 11 16.09 Fair CLR 8 8 100% 6 76.45 0.0
02 04:15 Calm 16.09 Fair CLR 8 8 100% 76.45 0.0
02 03:55 Calm 16.09 Fair CLR 8 8 100% 76.43 0.0
02 03:35 Calm 16.09 Fair CLR 9 8 94% 76.43 0.0
02 03:15 W 6 16.09 Fair CLR 9 9 100% 76.43 0.0
02 02:55 Calm 16.09 Fair CLR 9 9 100% 76.43 0.0
02 02:35 Calm 16.09 Fair CLR 11 7 77% 76.43 0.0
02 02:15 SW 6 16.09 Fair CLR 11 7 77% 76.45 0.0
02 01:55 SW 6 16.09 Fair CLR 11 7 77% 76.45 0.0
02 01:35 Calm 16.09 Fair CLR 12 6 67% 76.48 0.0
02 01:15 Calm 16.09 Fair CLR 12 7 72% 76.45 0.0
02 00:55 Calm 16.09 Fair CLR 12 5 18.5 11.8 63% 76.48 0.0
02 00:35 Calm 16.09 Fair CLR 12 6 67% 76.48 0.0
02 00:15 E 6 16.09 Fair CLR 13 6 63% 76.48 0.0
01 23:55 E 6 16.09 Fair CLR 13 6 63% 76.48 0.0
01 23:35 E 6 16.09 Fair CLR 14 6 59% 76.45 0.0
01 23:15 E 6 16.09 Fair CLR 14 6 59% 76.45 0.0
01 22:55 E 7 16.09 Fair CLR 14 7 63% 76.45 0.0
01 22:35 NE 9 16.09 Fair CLR 15 7 59% 76.45 0.0
01 22:15 E 9 16.09 Fair CLR 15 7 59% 76.45 0.0
01 21:55 NE 7 16.09 Fair CLR 16 8 59% 76.45 0.0
01 21:35 NE 7 16.09 Fair CLR 16 8 59% 76.43 0.0
01 21:15 NE 7 16.09 Fair CLR 16 8 59% 76.4 0.0
01 20:35 NE 7 16.09 Fair CLR 16 8 59% 76.38 0.0
01 20:15 NE 7 16.09 Fair CLR 16 9 63% 76.35 0.0
01 19:55 NE 7 16.09 Fair CLR 17 9 60% 76.33 0.0
01 19:35 NE 7 16.09 Fair CLR 17 9 60% 76.3 0.0
01 19:15 NE 9 16.09 Fair CLR 18 8 52% 76.3 0.0
01 18:55 NE 11 16.09 Fair CLR 18 8 21.4 18.3 52% 76.28 0.0
01 18:35 NE 13 16.09 Fair CLR 19 7 46% 76.28 0.0
01 18:15 N 13 16.09 Fair CLR 19 8 49% 76.25 0.0
01 17:55 N 20 16.09 Fair CLR 19 7 46% 76.23 0.0
Date Time (cdt) Wind (kph) Vis. (km) Weather Sky Cond. Air Dwpt Max. Min. Relative Humidity Wind Chill (°C) Heat Index (°C) altimeter (cm) sea level (mb) 1 hr 3 hr 6 hr
6 hour
Temperature (ºC) Pressure Precipitation (cm)